Tracking 28790 objects as of 19-Apr-2024
HD Live streaming from Space Station
objects crossing your sky now

SCOUT G-1 DEB

Track SCOUT G-1 DEB now!
10-day predictions


NORAD ID: 35401
Int'l Code: 1993-041E
Perigee: 622.3 km
Apogee: 679.6 km
Inclination: 89.5 °
Period: 97.6 minutes
Semi major axis: 7021 km
RCS: 0.0124 m2 (small)
Launch date: June 25, 1993
Source: United States (US)
Launch site: AIR FORCE WESTERN TEST RANGE (AFWTR)

Note: This is SATELLITE DEBRIS
Your satellite tracking list
Your tracking list is empty




NASA's NSSDC Master Catalog

Two Line Element Set (TLE):
1 35401U 93041E   24107.62790214  .00029682  00000-0  42960-2 0  9995
2 35401  89.4986  70.2082 0040848   5.3836 354.7815 14.75423336637644
Source of the keplerian elements: AFSPC